Location: Be?chatów
(51.3665°N, 19.3745°E)
Time: 08:39:37
(UTC+00:00)

IRS-1C Rocket - Pass Details

Date: 19 May 2025
Orbit: 798 x 805 km, 98.8° (Epoch: 16 June)

Event Time Altitude Azimuth Distance (km) Brightness Sun altitude
Exits shadow 19:34:30 - 155° (SSE) 2,514 6.1 -8.1°
Reaches altitude 10° 19:34:51 10° 155° (SSE) 2,380 5.9 -8.1°
Maximum altitude 19:40:05 74° 71° (ENE) 842 4.2 -8.6°
Drops below altitude 10° 19:45:21 10° 348° (NNW) 2,392 7.6 -9.2°
Sets 19:47:42 0° 346° (NNW) 3,326 8.6 -9.4°
